Home   Weather   Adak   Past weeks

Flag for USA Past Weather in Adak, Alaska, USA — Yesterday and Last 2 Weeks

Now
52 °F

Overcast.


Feels Like: 47 °F
Forecast: 51 / 53 °F
Wind: 16 mph from East

Location: Adak

Current Time: Sep 28, 2016 at 9:51:45 PM

Latest Report: Sep 28, 2016 at 9:16 PM


Visibility: 3 mi

Pressure: 29.90 "Hg

Humidity: 77%

Dew Point: 45 °F

Location of AdakLocation

Past Weather in Adak — Graph

°F

Adak Temperature Yesterday

Maximum temperature yesterday: 57 °F (at 2:36 PM)
Minimum temperature yesterday: 45 °F (at 2:16 AM)
Average temperature yesterday: 51 °F

High & Low Weather Summary for the Past Weeks

 TemperatureHumidityPressure
High57 °F (Sep 27, 2:36 PM)82% (Sep 14, 1:36 AM)30.31 "Hg (Sep 14, 1:36 AM)
Low43 °F (Sep 16, 9:56 PM)47% (Sep 16, 5:36 PM)28.92 "Hg (Sep 14, 2:16 AM)
Average49 °F69%29.85 "Hg
* Reported Sep 13 8:16 PM — Sep 28 8:36 PM, Adak, Weather by CustomWeather, © 2016

Note: Actual official high and low records may vary slightly from our data, if they occured in-between our weather recording intervals... More about our weather records

Advertising

Adak Weather History for the Previous 24 Hours

Scroll right to see more
 ConditionsComfort  
Time TempWeatherWind HumidityBarometerVisibility
8:36 PM
Wed, Sep 28
52 °FMostly cloudy.15 mph77%29.93 "Hg4 mi
8:16 PM52 °FMostly cloudy.16 mph77%29.94 "Hg5 mi
7:56 PM54 °FOvercast.16 mph72%29.95 "Hg8 mi
7:36 PM52 °FOvercast.16 mph77%29.96 "Hg2 mi
7:16 PM54 °FCloudy.20 mph72%29.97 "Hg4 mi
6:56 PM54 °FCloudy.18 mph72%29.98 "Hg10 mi
6:36 PM54 °FPartly sunny.15 mph72%30.00 "Hg10 mi
6:16 PM55 °FPassing clouds.24 mph63%30.01 "Hg10 mi
5:56 PM54 °FSunny.21 mph67%30.01 "Hg10 mi
5:36 PM54 °FScattered clouds.16 mph67%30.02 "Hg10 mi
5:16 PM54 °FBroken clouds.20 mph72%30.04 "Hg9 mi
4:56 PM52 °FMostly cloudy.20 mph77%30.06 "Hg8 mi
4:36 PM52 °FOvercast.18 mph77%30.07 "Hg6 mi
4:16 PM52 °FOvercast.17 mph77%30.08 "Hg8 mi
3:56 PM52 °FMostly cloudy.18 mph77%30.09 "Hg8 mi
3:36 PM52 °FCloudy.21 mph77%30.10 "Hg8 mi
3:16 PM52 °FCloudy.26 mph77%30.11 "Hg5 mi
2:56 PM54 °FCloudy.23 mph72%30.12 "Hg4 mi
2:36 PM54 °FMore clouds than sun.25 mph72%30.13 "Hg4 mi
2:16 PM54 °FMostly cloudy.20 mph72%30.14 "Hg3 mi
1:56 PM54 °FMostly cloudy.23 mph72%30.15 "Hg5 mi
1:36 PM54 °FOvercast.23 mph67%30.16 "Hg10 mi
1:16 PM54 °FCloudy.18 mph72%30.17 "Hg8 mi
12:56 PM54 °FMostly cloudy.16 mph67%30.18 "Hg10 mi
12:36 PM54 °FMostly cloudy.17 mph67%30.18 "Hg10 mi
12:16 PM54 °FMostly cloudy.21 mph67%30.19 "Hg10 mi
11:56 AM54 °FMore clouds than sun.18 mph67%30.20 "Hg10 mi
11:36 AM54 °FBroken clouds.21 mph67%30.20 "Hg10 mi
11:16 AM54 °FPassing clouds.17 mph67%30.21 "Hg10 mi
10:56 AM54 °FOvercast.21 mph63%30.21 "Hg10 mi
10:36 AM54 °FOvercast.18 mph63%30.21 "Hg10 mi
10:16 AM54 °FOvercast.16 mph67%30.22 "Hg10 mi
9:56 AM52 °FPartly sunny.14 mph72%30.22 "Hg10 mi
9:36 AM52 °FScattered clouds.15 mph72%30.23 "Hg10 mi
9:16 AM54 °FPartly sunny.14 mph67%30.23 "Hg10 mi
8:56 AM54 °FPartly sunny.18 mph63%30.24 "Hg10 mi
8:36 AM52 °FScattered clouds.14 mph67%30.24 "Hg10 mi
8:16 AM50 °FOvercast.7 mph71%30.25 "Hg10 mi
7:56 AM52 °FOvercast.13 mph62%30.25 "Hg10 mi
7:36 AM52 °FPassing clouds.16 mph72%30.25 "Hg10 mi
7:16 AM52 °FOvercast.8 mph72%30.26 "Hg10 mi
6:56 AM52 °FMostly cloudy.6 mph72%30.25 "Hg10 mi
6:36 AM52 °FOvercast.6 mph72%30.26 "Hg10 mi
6:16 AM54 °FMostly cloudy.6 mph67%30.26 "Hg10 mi
5:56 AM54 °FMostly cloudy.7 mph67%30.25 "Hg10 mi
5:36 AM52 °FOvercast.7 mph72%30.24 "Hg10 mi
5:16 AM54 °FOvercast.7 mph67%30.24 "Hg10 mi
4:56 AM52 °FOvercast.5 mph77%30.25 "Hg10 mi
4:36 AM52 °FOvercast.7 mph77%30.25 "Hg10 mi
4:16 AM52 °FOvercast.15 mph77%30.25 "Hg10 mi
3:56 AM52 °FOvercast.16 mph77%30.25 "Hg10 mi
3:36 AM52 °FOvercast.16 mph77%30.26 "Hg10 mi
3:16 AM52 °FOvercast.20 mph72%30.26 "Hg10 mi
2:56 AM52 °FOvercast.17 mph72%30.27 "Hg10 mi
2:36 AM52 °FOvercast.17 mph72%30.27 "Hg10 mi
2:16 AM52 °FOvercast.18 mph72%30.27 "Hg10 mi
1:56 AM52 °FOvercast.17 mph77%30.28 "Hg10 mi
1:36 AM52 °FOvercast.13 mph77%30.28 "Hg10 mi
1:16 AM52 °FMostly cloudy.6 mph77%30.29 "Hg10 mi
12:56 AM52 °FOvercast.8 mph77%30.29 "Hg10 mi
12:36 AM52 °FOvercast.6 mph77%30.30 "Hg10 mi
12:16 AM52 °FLow clouds.9 mph77%30.30 "Hg10 mi
11:56 PM
Tue, Sep 27
52 °FLow clouds.No wind77%30.30 "Hg10 mi
11:36 PM52 °FOvercast.7 mph77%30.30 "Hg10 mi
11:16 PM52 °FMostly cloudy.12 mph77%30.30 "Hg10 mi
10:56 PM52 °FLow clouds.3 mph77%30.30 "Hg10 mi
10:36 PM52 °FMostly cloudy.No wind77%30.31 "Hg10 mi
10:16 PM52 °FMostly cloudy.6 mph77%30.30 "Hg10 mi
9:56 PM52 °FMostly cloudy.8 mph77%30.29 "Hg10 mi
9:36 PM52 °FLow clouds.3 mph77%30.30 "Hg10 mi
9:16 PM52 °FLow clouds.No wind77%30.29 "Hg10 mi
Weather by CustomWeather, © 2016

See weather overviewHow to use our weather pages